M I D A S
Marine Information and Data Acquisition System
Tripno 1269 of the Zeeleeuw from 2007-05-08 12:31:52 to 2007-05-08 13:35:23
Back to CruiseResearch ActivitiesStationsMapUnderway DataData graphs

EquipmentUnitsComment
TimeDGPSUTC
LatitudeDGPSDM.mWGS84
LongitudeDGPSDM.mWGS84
TemperatureSBE03/SBE38deg celciusITS90
ConductivitySBE21S/mITS90
SalinitySBE21 Practical Salinity Units
ChlorophylAChelsea fluorimeterg/lCalibrated in Aceton
Missing or incorrect values are displayed as -999
Sea surface data collected by the RV Zeeleeuw from 2007-05-08 07:31:53 to 2007-05-08 13:50:53
Time Latitude Longitude Temperature Conductivity Salinity ChlorophylA
2007-05-08 07:32:58 51°13.795 2°55.67 18.7092 0.070955 0.359207 -2.871232
2007-05-08 07:33:58 51°13.933 2°55.561 18.8189 0.070955 0.359226 -2.871232
2007-05-08 07:34:58 51°14.086 2°55.466 18.8855 0.070955 0.359226 -2.871232
2007-05-08 07:35:58 51°14.232 2°55.327 18.7737 0.070955 0.35922 -2.871232
2007-05-08 07:36:58 51°14.355 2°55.091 18.8227 0.070955 0.359213 -2.871232
2007-05-08 07:37:58 51°14.471 2°54.816 18.6625 0.070955 0.359213 -2.871232
2007-05-08 07:38:58 51°14.566 2°54.503 18.5976 0.070955 0.359245 -2.871232
2007-05-08 07:39:58 51°14.626 2°54.167 18.5336 0.070955 0.359265 -2.871232
2007-05-08 07:40:58 51°14.66 2°53.828 18.5859 0.070955 0.359271 -2.871232
2007-05-08 07:41:58 51°14.683 2°53.487 18.5936 0.070955 0.35929 -2.871232
2007-05-08 07:42:58 51°14.691 2°53.15 18.535 0.070852 0.358779 -2.871232
2007-05-08 07:43:58 51°14.672 2°52.809 18.4422 0.070955 0.359342 -2.871232
2007-05-08 07:44:58 51°14.659 2°52.468 18.4619 0.070852 0.35883 -2.871232
2007-05-08 07:45:58 51°14.648 2°52.131 18.49 0.070852 0.358869 -2.871232
2007-05-08 07:46:58 51°14.612 2°51.968 18.5123 0.070852 0.358933 -2.871232
2007-05-08 07:47:58 51°14.583 2°51.955 18.5056 0.070852 0.358952 -2.871232
2007-05-08 07:48:58 51°14.569 2°51.962 18.5491 0.070852 0.358997 -2.871232
2007-05-08 07:49:58 51°14.565 2°51.979 18.5772 0.070852 0.359055 -2.871232
2007-05-08 07:50:58 51°14.562 2°51.997 18.5972 0.070852 0.3591 -2.871232
2007-05-08 07:51:58 51°14.526 2°52.014 18.625 0.070852 0.359132 -2.871232
2007-05-08 07:52:58 51°14.459 2°51.949 18.6621 0.070852 0.359171 -2.871232
2007-05-08 07:53:58 51°14.441 2°51.875 18.6873 0.070852 0.359183 -2.871232
2007-05-08 07:54:58 51°14.44 2°51.827 18.7133 0.070749 0.358665 -2.871232
2007-05-08 07:55:58 51°14.436 2°51.773 18.7349 0.070749 0.358685 -2.871232
2007-05-08 07:56:58 51°14.433 2°51.695 18.7611 0.070749 0.358697 -2.871232
2007-05-08 07:57:58 51°14.441 2°51.603 18.7861 0.070749 0.358736 -2.871232
2007-05-08 07:58:58 51°14.426 2°51.522 18.8088 0.070749 0.35873 -2.871232
2007-05-08 07:59:58 51°14.403 2°51.435 18.8357 0.070749 0.358742 -2.871232
2007-05-08 08:00:58 51°14.396 2°51.337 18.8666 0.070749 0.358774 -2.871232
2007-05-08 08:01:58 51°14.37 2°51.25 18.8883 0.070749 0.358781 -2.871232
2007-05-08 08:02:58 51°14.352 2°51.155 18.9168 0.070749 0.358787 -2.871232
2007-05-08 08:03:58 51°14.35 2°51.059 18.9449 0.070749 0.358832 -2.871232
2007-05-08 08:04:58 51°14.333 2°50.985 18.9718 0.070749 0.358858 -2.871232
2007-05-08 08:05:58 51°14.304 2°50.901 18.9963 0.070749 0.358871 -2.871232
2007-05-08 08:06:58 51°14.291 2°50.808 19.0189 0.070749 0.358903 -2.871232
2007-05-08 08:07:58 51°14.278 2°50.714 19.0436 0.070749 0.358941 -2.871232
2007-05-08 08:08:58 51°14.248 2°50.644 19.0749 0.070749 0.358954 -2.871232
2007-05-08 08:09:58 51°14.218 2°50.58 19.0991 0.070749 0.358974 -2.871232
2007-05-08 08:10:58 51°14.193 2°50.506 19.1217 0.070749 0.358999 -2.871232
2007-05-08 08:11:58 51°14.171 2°50.428 19.1465 0.070749 0.359031 -2.871232
2007-05-08 08:12:58 51°14.145 2°50.346 19.1734 0.070749 0.359057 -2.871232
2007-05-08 08:13:58 51°14.111 2°50.272 19.1897 0.070646 0.358532 -2.871232
2007-05-08 08:14:58 51°14.079 2°50.206 19.219 0.070749 0.359089 -2.871232
2007-05-08 08:15:58 51°14.049 2°50.125 19.2525 0.070646 0.358577 -2.871232
2007-05-08 08:16:58 51°14.024 2°50.032 19.2649 0.070646 0.358603 -2.871232
2007-05-08 08:17:58 51°13.998 2°49.937 19.2886 0.070646 0.358622 -2.871232
2007-05-08 08:18:58 51°13.97 2°49.863 19.3171 0.070749 0.359179 -2.871232
2007-05-08 08:19:58 51°13.938 2°49.797 19.3431 0.070749 0.359199 -2.871232
2007-05-08 08:20:58 51°13.906 2°49.733 19.3647 0.070646 0.35868 -2.871232
2007-05-08 08:21:58 51°13.878 2°49.659 19.3899 0.070646 0.358706 -2.871232
2007-05-08 08:22:58 51°13.856 2°49.575 19.4169 0.070646 0.358731 -2.871232
2007-05-08 08:23:58 51°13.843 2°49.482 19.4365 0.070646 0.358757 -2.871232
2007-05-08 08:24:58 51°13.839 2°49.39 19.4515 0.070646 0.358776 -2.871232
2007-05-08 08:25:58 51°13.832 2°49.301 19.4793 0.070646 0.358802 -2.871232
2007-05-08 08:26:58 51°13.813 2°49.221 19.4977 0.070646 0.358828 -2.871232
2007-05-08 08:27:58 51°13.79 2°49.148 19.5222 0.070646 0.358834 -2.871232
2007-05-08 08:28:58 51°13.767 2°49.075 19.5448 0.070646 0.358866 -2.871232
2007-05-08 08:29:58 51°13.749 2°48.993 19.5703 0.070646 0.358892 -2.871232
2007-05-08 08:30:58 51°13.737 2°48.911 19.5891 0.070646 0.358924 -2.871232
2007-05-08 08:31:58 51°13.744 2°48.833 19.6111 0.070646 0.358957 -2.871232
2007-05-08 08:32:58 51°13.787 2°48.779 19.6256 0.070646 0.358995 -2.871232
2007-05-08 08:33:58 51°13.838 2°48.815 19.6453 0.070646 0.359015 -2.871232
2007-05-08 08:34:58 51°13.837 2°48.903 19.6638 0.070646 0.35904 -2.871232
2007-05-08 08:35:58 51°13.789 2°48.938 19.689 0.070646 0.359047 -2.871232
2007-05-08 08:36:58 51°13.742 2°48.91 19.7155 0.070646 0.359053 -2.871232
2007-05-08 08:37:58 51°13.722 2°48.843 19.7391 0.070646 0.359079 -2.871232
2007-05-08 08:38:58 51°13.759 2°48.801 19.7576 0.070646 0.359131 -2.871232
2007-05-08 08:39:58 51°13.784 2°48.792 19.7751 0.070543 0.358585 -2.871232
2007-05-08 08:40:58 51°13.798 2°48.79 19.7951 0.070543 0.358572 -2.871232
2007-05-08 08:41:58 51°13.839 2°48.801 19.8155 0.070543 0.358592 -2.871232
2007-05-08 08:42:58 51°13.885 2°48.924 19.8351 0.070543 0.358624 -2.871232
2007-05-08 08:43:58 51°13.969 2°49.202 19.8535 0.070543 0.358624 -2.871232
2007-05-08 08:44:58 51°14.049 2°49.509 19.8748 0.070543 0.358624 -2.871232
2007-05-08 08:45:58 51°14.126 2°49.817 19.8956 0.070543 0.35865 -2.871232
2007-05-08 08:46:58 51°14.204 2°50.126 19.9117 0.070543 0.358682 -2.871232
2007-05-08 08:47:58 51°14.265 2°50.448 19.9276 0.070543 0.35872 -2.871232
2007-05-08 08:48:58 51°14.32 2°50.771 19.9508 0.070543 0.358733 -2.871232
2007-05-08 08:49:58 51°14.385 2°51.091 19.969 0.070543 0.358753 -2.871232
2007-05-08 08:50:58 51°14.438 2°51.412 19.982 0.070543 0.358772 -2.871232
2007-05-08 08:51:58 51°14.483 2°51.742 19.9997 0.070543 0.358772 -2.871232
2007-05-08 08:52:58 51°14.524 2°52.071 20.0208 0.070543 0.358824 -2.871232
2007-05-08 08:53:57 51°14.559 2°52.396 20.0461 0.070543 0.35883 -2.871232
2007-05-08 08:54:58 51°14.588 2°52.734 20.0657 0.070543 0.358843 -2.871232
2007-05-08 08:55:57 51°14.617 2°53.059 20.0859 0.070543 0.358862 -2.871232
2007-05-08 08:56:58 51°14.633 2°53.396 20.1062 0.070543 0.358869 -2.871232
2007-05-08 08:57:58 51°14.63 2°53.727 20.1267 0.070543 0.358907 -2.871232
2007-05-08 08:58:58 51°14.583 2°54.062 20.145 0.070543 0.358927 -2.871232
2007-05-08 08:59:58 51°14.548 2°54.384 20.1626 0.070543 0.35892 -2.871232
2007-05-08 09:00:58 51°14.474 2°54.693 20.182 0.070543 0.358946 -2.871232
2007-05-08 09:01:58 51°14.387 2°54.995 20.2017 0.070543 0.358953 -2.871232
2007-05-08 09:02:58 51°14.264 2°55.269 20.2197 0.070543 0.358972 -2.871232
2007-05-08 09:03:58 51°14.126 2°55.428 20.2409 0.070543 0.358998 -2.871232
2007-05-08 09:04:58 51°14.006 2°55.511 20.2584 0.070441 0.35849 -2.871232
2007-05-08 09:05:58 51°13.877 2°55.596 20.2828 0.070441 0.358529 -2.871232
2007-05-08 09:06:58 51°13.767 2°55.696 20.2999 0.070543 0.359114 -2.871232
2007-05-08 09:07:58 51°13.697 2°55.803 20.3204 0.070441 0.3586 -2.871232
2007-05-08 09:08:58 51°13.65 2°55.901 20.3413 0.070441 0.358645 -2.871232
2007-05-08 09:09:58 51°13.621 2°55.989 20.3636 0.070441 0.358684 -2.871232
2007-05-08 09:10:58 51°13.607 2°56.062 20.3862 0.070441 0.358716 -2.871232
2007-05-08 09:11:58 51°13.602 2°56.096 20.4103 0.070441 0.358748 -2.871232
2007-05-08 09:12:58 51°13.601 2°56.1 20.4317 0.070441 0.358781 -2.871232
2007-05-08 09:13:58 51°13.602 2°56.1 20.4482 0.070441 0.358807 -2.871232
2007-05-08 09:14:58 51°13.602 2°56.099 20.4744 0.070441 0.358839 -2.871232
2007-05-08 09:15:58 51°13.602 2°56.1 20.4862 0.070441 0.358839 -2.871232
2007-05-08 09:16:58 51°13.602 2°56.1 20.509 0.070441 0.358852 -2.871232
2007-05-08 09:17:58 51°13.603 2°56.1 20.5256 0.070338 0.358331 -2.871232
2007-05-08 09:18:58 51°13.601 2°56.099 20.5433 -999 -999 -2.871232
2007-05-08 09:19:58 51°13.601 2°56.099 20.5299 0.070441 0.358891 -2.871232
2007-05-08 09:20:58 51°13.601 2°56.1 20.5146 0.070338 0.35837 -2.871232
2007-05-08 09:21:58 51°13.602 2°56.1 20.5309 0.070441 0.358923 -2.871232
2007-05-08 09:22:58 51°13.603 2°56.101 20.5202 0.070338 0.358402 -2.871232
2007-05-08 09:23:58 51°13.603 2°56.1 20.5271 0.070441 0.358955 -2.871232
2007-05-08 09:24:58 51°13.602 2°56.1 20.5339 0.070441 0.358968 -2.871232
2007-05-08 09:25:58 51°13.603 2°56.1 20.5331 0.070441 0.358981 -2.871232
2007-05-08 09:26:58 51°13.603 2°56.099 20.5353 0.070338 0.358454 -2.871232
2007-05-08 09:27:58 51°13.602 2°56.1 20.5423 0.070338 0.358467 -2.871232
2007-05-08 09:28:58 51°13.604 2°56.1 20.5454 0.070338 0.35848 -2.871232
2007-05-08 09:29:58 51°13.603 2°56.099 20.549 0.070338 0.358492 -2.871232
2007-05-08 09:30:58 51°13.603 2°56.099 20.5508 0.070338 0.358505 -2.871232
2007-05-08 09:31:58 51°13.603 2°56.099 20.551 0.070338 0.358518 -2.871232
2007-05-08 09:32:58 51°13.603 2°56.098 20.5548 0.070338 0.358531 -2.871232
2007-05-08 09:33:58 51°13.602 2°56.098 20.5591 0.070338 0.358544 -2.871232
2007-05-08 09:34:58 51°13.602 2°56.099 20.5652 0.070338 0.358557 -2.871232
2007-05-08 09:35:58 51°13.601 2°56.1 20.5666 0.070338 0.35857 -2.871232
2007-05-08 09:36:58 51°13.601 2°56.1 20.5688 0.070338 0.358583 -2.871232
2007-05-08 09:37:58 51°13.601 2°56.099 20.5723 0.070338 0.358602 -2.871232
2007-05-08 09:38:58 51°13.601 2°56.1 20.5769 0.070338 0.358615 -2.871232
2007-05-08 09:39:58 51°13.601 2°56.1 20.5762 0.070338 0.358635 -2.871232
2007-05-08 09:40:58 51°13.602 2°56.1 20.5847 0.070338 0.358647 -2.871232
2007-05-08 09:41:58 51°13.602 2°56.1 20.5886 0.070338 0.358667 -2.871232
2007-05-08 09:42:58 51°13.602 2°56.099 20.5916 0.070338 0.35868 -2.871232
2007-05-08 09:43:58 51°13.602 2°56.099 20.5893 0.070338 0.358693 -2.871232
2007-05-08 09:44:58 51°13.602 2°56.099 20.5973 0.070338 0.358712 -2.871232
2007-05-08 09:45:58 51°13.602 2°56.099 20.5922 0.070338 0.358725 -2.871232
2007-05-08 09:46:58 51°13.602 2°56.1 20.5993 0.070338 0.358744 -2.871232
2007-05-08 09:47:58 51°13.602 2°56.099 20.6 0.070338 0.358757 -2.871232
2007-05-08 09:48:58 51°13.603 2°56.099 20.6044 0.070338 0.358777 -2.871232
2007-05-08 09:49:58 51°13.603 2°56.099 20.6147 0.070338 0.35879 -2.871232
2007-05-08 09:50:58 51°13.602 2°56.1 20.6148 0.070338 0.358803 -2.871232
2007-05-08 09:51:58 51°13.603 2°56.1 20.6064 0.070338 0.358822 -2.871232
2007-05-08 09:52:58 51°13.603 2°56.1 20.6067 0.070338 0.358835 -2.871232
2007-05-08 09:53:58 51°13.603 2°56.099 20.6153 0.070338 0.358854 -2.871232
2007-05-08 09:54:58 51°13.603 2°56.099 20.6194 0.070338 0.358867 -2.871232
2007-05-08 09:55:58 51°13.603 2°56.1 20.6222 0.070338 0.358887 -2.871232
2007-05-08 09:56:58 51°13.602 2°56.1 20.6318 0.070338 0.358906 -2.871232
2007-05-08 09:57:58 51°13.603 2°56.1 20.6285 0.070338 0.358919 -2.871232
2007-05-08 09:58:58 51°13.602 2°56.099 20.6309 0.070338 0.358939 -2.871232
2007-05-08 09:59:58 51°13.602 2°56.099 20.6405 0.070235 0.358417 -2.871232
2007-05-08 10:00:58 51°13.602 2°56.099 20.6329 0.070338 0.358971 -2.871232
2007-05-08 10:01:58 51°13.602 2°56.099 20.6423 0.070235 0.358449 -2.871232
2007-05-08 10:02:58 51°13.602 2°56.099 20.6455 0.070235 0.358469 -2.871232
2007-05-08 10:03:58 51°13.602 2°56.1 20.6392 0.070235 0.358482 -2.871232
2007-05-08 10:04:58 51°13.602 2°56.1 20.6461 0.070235 0.358501 -2.871232
2007-05-08 10:05:58 51°13.602 2°56.1 20.6337 0.070235 0.35852 -2.871232
2007-05-08 10:06:58 51°13.602 2°56.1 20.6509 0.070235 0.35854 -2.871232
2007-05-08 10:07:58 51°13.602 2°56.099 20.65 0.070235 0.358553 -2.871232
2007-05-08 10:08:58 51°13.602 2°56.099 20.6478 0.070235 0.358579 -2.871232
2007-05-08 10:09:58 51°13.602 2°56.099 20.6495 0.070235 0.358585 -2.871232
2007-05-08 10:10:58 51°13.603 2°56.098 20.659 0.070235 0.358605 -2.871232
2007-05-08 10:11:58 51°13.603 2°56.098 20.6489 0.070235 0.358624 -2.871232
2007-05-08 10:12:58 51°13.603 2°56.098 20.6527 0.070235 0.358643 -2.871232
2007-05-08 10:13:58 51°13.603 2°56.098 20.6525 0.070235 0.358656 -2.871232
2007-05-08 10:14:58 51°13.603 2°56.098 20.6652 0.070235 0.358676 -2.871232
2007-05-08 10:15:58 51°13.603 2°56.098 20.6655 0.070235 0.358689 -2.871232
2007-05-08 10:16:58 51°13.603 2°56.099 20.6576 0.070235 0.358708 -2.871232
2007-05-08 10:17:58 51°13.603 2°56.098 20.6665 0.070235 0.358721 -2.871232
2007-05-08 10:18:58 51°13.604 2°56.099 20.673 0.070235 0.358747 -2.871232
2007-05-08 10:19:58 51°13.604 2°56.099 20.6734 0.070235 0.35876 -2.871232
2007-05-08 10:20:58 51°13.603 2°56.099 20.6849 0.070235 0.35878 -2.871232
2007-05-08 10:21:58 51°13.603 2°56.099 20.685 0.070235 0.358799 -2.871232
2007-05-08 10:22:58 51°13.602 2°56.1 20.6657 0.070235 0.358812 -2.871232
2007-05-08 10:23:58 51°13.602 2°56.1 20.6702 0.070235 0.358831 -2.871232
2007-05-08 10:24:58 51°13.602 2°56.1 20.6773 0.070235 0.358851 -2.871232
2007-05-08 10:25:58 51°13.602 2°56.1 20.6703 0.070235 0.358864 -2.871232
2007-05-08 10:26:58 51°13.602 2°56.1 20.6746 0.070235 0.358883 -2.871232
2007-05-08 10:27:58 51°13.602 2°56.1 20.6823 0.070235 0.358903 -2.871232
2007-05-08 10:28:58 51°13.602 2°56.1 20.6782 0.070235 0.358916 -2.871232
2007-05-08 10:29:58 51°13.602 2°56.1 20.6679 0.070235 0.358935 -2.871232
2007-05-08 10:30:58 51°13.602 2°56.1 20.668 0.070235 0.358948 -2.871232
2007-05-08 10:31:58 51°13.602 2°56.1 20.687 0.070235 0.358968 -2.871232
2007-05-08 10:32:58 51°13.602 2°56.1 20.6895 0.070132 0.358439 -2.871232
2007-05-08 10:33:58 51°13.602 2°56.1 20.6965 0.070132 0.358458 -2.871232
2007-05-08 10:34:58 51°13.602 2°56.1 20.6849 0.070235 0.35902 -2.871232
2007-05-08 10:35:58 51°13.603 2°56.1 20.6797 0.070132 0.358497 -2.871232
2007-05-08 10:36:58 51°13.603 2°56.1 20.7063 0.070132 0.358516 -2.871232
2007-05-08 10:37:58 51°13.602 2°56.099 20.6833 0.070132 0.358536 -2.871232
2007-05-08 10:38:58 51°13.603 2°56.099 20.6897 0.070132 0.358549 -2.871232
2007-05-08 10:39:58 51°13.602 2°56.099 20.6703 0.070132 0.358568 -2.871232
2007-05-08 10:40:58 51°13.601 2°56.099 20.6909 0.070132 0.358581 -2.871232
2007-05-08 10:41:58 51°13.601 2°56.099 20.6675 0.070132 0.358601 -2.871232
2007-05-08 10:42:58 51°13.602 2°56.099 20.6965 0.070132 0.35862 -2.871232
2007-05-08 10:43:58 51°13.602 2°56.099 20.6924 0.070132 0.35864 -2.871232
2007-05-08 10:44:58 51°13.602 2°56.099 20.6998 0.070132 0.358653 -2.871232
2007-05-08 10:45:58 51°13.602 2°56.099 20.6949 0.070132 0.358672 -2.871232
2007-05-08 10:46:58 51°13.602 2°56.1 20.6894 0.070132 0.358685 -2.871232
2007-05-08 10:47:58 51°13.602 2°56.1 20.7091 0.070132 0.358705 -2.871232
2007-05-08 10:48:58 51°13.602 2°56.1 20.7097 0.070132 0.358724 -2.871232
2007-05-08 10:49:58 51°13.602 2°56.1 20.6798 0.070132 0.358737 -2.871232
2007-05-08 10:50:58 51°13.602 2°56.1 20.7075 0.070132 0.358757 -2.871232
2007-05-08 10:51:58 51°13.602 2°56.1 20.7094 0.070132 0.358776 -2.871232
2007-05-08 10:52:58 51°13.602 2°56.1 20.7117 0.070132 0.358789 -2.871232
2007-05-08 10:53:58 51°13.602 2°56.099 20.706 0.070132 0.358808 -2.871232
2007-05-08 10:54:58 51°13.602 2°56.1 20.7085 0.070132 0.358828 -2.871232
2007-05-08 10:55:58 51°13.602 2°56.099 20.684 0.070132 0.358841 -2.871232
2007-05-08 10:56:58 51°13.602 2°56.099 20.7098 0.070132 0.358867 -2.871232
2007-05-08 10:57:58 51°13.602 2°56.099 20.709 0.070132 0.35888 -2.871232
2007-05-08 10:58:58 51°13.602 2°56.099 20.7069 0.070132 0.358899 -2.871232
2007-05-08 10:59:58 51°13.602 2°56.1 20.7102 0.070132 0.358919 -2.871232
2007-05-08 11:00:58 51°13.602 2°56.1 20.7366 0.070132 0.358932 -2.871232
2007-05-08 11:01:58 51°13.602 2°56.1 20.7114 0.070029 0.358409 -2.871232
2007-05-08 11:02:58 51°13.602 2°56.1 20.7238 0.070029 0.358428 -2.871232
2007-05-08 11:03:58 51°13.602 2°56.1 20.7134 0.070132 0.35899 -2.871232
2007-05-08 11:04:58 51°13.602 2°56.1 20.7206 0.070132 0.359003 -2.871232
2007-05-08 11:05:58 51°13.602 2°56.1 20.6891 0.070132 0.359016 -2.871232
2007-05-08 11:06:58 51°13.602 2°56.1 20.7274 0.070029 0.358493 -2.871232
2007-05-08 11:07:58 51°13.602 2°56.1 20.7308 0.070029 0.358513 -2.871232
2007-05-08 11:08:58 51°13.602 2°56.1 20.7238 0.070029 0.358526 -2.871232
2007-05-08 11:09:58 51°13.602 2°56.1 20.7383 0.070029 0.358545 -2.871232
2007-05-08 11:10:58 51°13.602 2°56.1 20.757 0.070029 0.358565 -2.871232
2007-05-08 11:11:58 51°13.602 2°56.1 20.7334 0.070029 0.358578 -2.871232
2007-05-08 11:12:58 51°13.602 2°56.1 20.7314 0.070029 0.358591 -2.871232
2007-05-08 11:13:58 51°13.602 2°56.099 20.7331 0.070029 0.35861 -2.871232
2007-05-08 11:14:58 51°13.602 2°56.099 20.7624 0.070029 0.358623 -2.871232
2007-05-08 11:15:58 51°13.602 2°56.099 20.7318 0.070029 0.358643 -2.871232
2007-05-08 11:16:58 51°13.602 2°56.099 20.7241 0.070029 0.358656 -2.871232
2007-05-08 11:17:58 51°13.602 2°56.099 20.7043 0.070029 0.358669 -2.871232
2007-05-08 11:18:58 51°13.602 2°56.099 20.7334 0.070029 0.358682 -2.871232
2007-05-08 11:19:58 51°13.602 2°56.099 20.7481 0.070029 0.358701 -2.871232
2007-05-08 11:20:58 51°13.602 2°56.099 20.7511 0.070029 0.358714 -2.871232
2007-05-08 11:21:58 51°13.602 2°56.099 20.7332 0.070029 0.358727 -2.871232
2007-05-08 11:22:58 51°13.602 2°56.1 20.7441 0.070029 0.35874 -2.871232
2007-05-08 11:23:58 51°13.602 2°56.1 20.6815 0.070029 0.358747 -2.871232
2007-05-08 11:24:58 51°13.602 2°56.099 20.7299 0.070029 0.358766 -2.871232
2007-05-08 11:25:58 51°13.602 2°56.099 20.7365 0.070029 0.358779 -2.871232
2007-05-08 11:26:58 51°13.602 2°56.099 20.7431 0.070029 0.358786 -2.871232
2007-05-08 11:27:58 51°13.602 2°56.098 20.7771 0.070029 0.358805 -2.871232
2007-05-08 11:28:58 51°13.602 2°56.099 20.7829 0.070029 0.358818 -2.871232
2007-05-08 11:29:58 51°13.602 2°56.099 20.7775 0.070029 0.358831 -2.871232
2007-05-08 11:30:58 51°13.602 2°56.1 20.7928 0.070029 0.358838 -2.871232
2007-05-08 11:31:58 51°13.602 2°56.1 20.8004 0.070029 0.358857 -2.871232
2007-05-08 11:32:58 51°13.602 2°56.101 20.7873 0.070029 0.35887 -2.871232
2007-05-08 11:33:58 51°13.602 2°56.1 20.7832 0.070029 0.358883 -2.871232
2007-05-08 11:34:58 51°13.603 2°56.1 20.767 0.070029 0.358896 -2.871232
2007-05-08 11:35:58 51°13.602 2°56.101 20.7791 0.070029 0.358909 -2.871232
2007-05-08 11:36:58 51°13.602 2°56.1 20.7896 0.069926 0.358379 -2.871232
2007-05-08 11:37:58 51°13.602 2°56.099 20.8046 0.070029 0.358935 -2.871232
2007-05-08 11:38:58 51°13.602 2°56.099 20.8174 0.070029 0.358955 -2.871232
2007-05-08 11:39:58 51°13.602 2°56.099 20.8171 0.069926 0.358424 -2.871232
2007-05-08 11:40:58 51°13.602 2°56.099 20.8008 0.069926 0.358444 -2.871232
2007-05-08 11:41:58 51°13.602 2°56.099 20.7964 0.070029 0.359001 -2.871232
2007-05-08 11:42:58 51°13.602 2°56.1 20.8087 0.070029 0.359014 -2.871232
2007-05-08 11:43:58 51°13.603 2°56.099 20.8145 0.069926 0.358483 -2.871232
2007-05-08 11:44:58 51°13.601 2°56.098 20.8221 0.069926 0.358503 -2.871232
2007-05-08 11:45:58 51°13.602 2°56.098 20.8522 0.069926 0.358516 -2.871232
2007-05-08 11:46:58 51°13.601 2°56.098 20.8183 0.070029 0.359072 -2.871232
2007-05-08 11:47:58 51°13.6 2°56.099 20.8354 0.070029 0.359085 -2.871232
2007-05-08 11:48:58 51°13.601 2°56.099 20.8314 0.069926 0.358561 -2.871232
2007-05-08 11:49:58 51°13.601 2°56.099 20.7873 0.069926 0.358574 -2.871232
2007-05-08 11:50:58 51°13.601 2°56.099 20.8354 0.070029 0.359131 -2.871232
2007-05-08 11:51:58 51°13.601 2°56.1 20.7964 0.069926 0.3586 -2.871232
2007-05-08 11:52:58 51°13.602 2°56.101 20.8493 0.069926 0.35862 -2.871232
2007-05-08 11:53:58 51°13.603 2°56.1 20.8486 0.069926 0.358633 -2.871232
2007-05-08 11:54:58 51°13.602 2°56.099 20.8644 0.069926 0.358639 -2.871232
2007-05-08 11:55:58 51°13.602 2°56.099 20.8529 0.069926 0.358659 -2.871232
2007-05-08 11:56:58 51°13.602 2°56.1 20.8074 0.069926 0.358672 -2.871232
2007-05-08 11:57:58 51°13.601 2°56.1 20.8487 0.069926 0.358678 -2.871232
2007-05-08 11:58:58 51°13.602 2°56.101 20.8328 0.069926 0.358691 -2.871232
2007-05-08 11:59:58 51°13.602 2°56.1 20.8218 0.069926 0.358698 -2.871232
2007-05-08 12:00:58 51°13.602 2°56.1 20.8211 0.069926 0.358704 -2.871232
2007-05-08 12:01:58 51°13.601 2°56.1 20.8524 0.069926 0.358698 -2.871232
2007-05-08 12:02:58 51°13.601 2°56.097 20.7595 0.069926 0.358698 -2.871232
2007-05-08 12:03:58 51°13.617 2°56.046 20.7271 0.069926 0.358691 -2.871232
2007-05-08 12:04:58 51°13.641 2°55.952 20.8077 0.069926 0.358685 -2.871232
2007-05-08 12:05:58 51°13.672 2°55.852 20.8259 0.069926 0.358691 -2.871232
2007-05-08 12:06:58 51°13.692 2°55.776 20.7991 0.069926 0.358704 -2.871232
2007-05-08 12:07:58 51°13.697 2°55.725 20.8395 0.069926 0.358711 -2.871232
2007-05-08 12:08:58 51°13.714 2°55.728 20.8841 0.069926 0.358737 -2.871232
2007-05-08 12:09:58 51°13.773 2°55.686 20.7739 0.069926 0.35873 -2.871232
2007-05-08 12:10:58 51°13.868 2°55.611 20.8121 0.069926 0.35875 -2.871232
2007-05-08 12:11:58 51°14.015 2°55.511 20.82 0.069926 0.358789 -2.871232
2007-05-08 12:12:58 51°14.178 2°55.377 20.7967 0.069926 0.358796 -2.871232
2007-05-08 12:13:58 51°14.324 2°55.17 20.7791 0.069926 0.358815 -2.871232
2007-05-08 12:14:58 51°14.437 2°54.894 20.7127 0.069926 0.358841 -2.871232
2007-05-08 12:15:58 51°14.535 2°54.596 20.6786 0.069926 0.358861 -2.871232
2007-05-08 12:16:58 51°14.608 2°54.279 20.6453 0.069926 0.358893 -2.871232
2007-05-08 12:17:57 51°14.652 2°53.957 20.6401 0.069926 0.358926 -2.871232
2007-05-08 12:18:58 51°14.649 2°53.617 20.6017 0.069926 0.358959 -2.871232
2007-05-08 12:19:57 51°14.642 2°53.292 20.5591 0.069926 0.359004 -2.871232
2007-05-08 12:20:58 51°14.634 2°52.951 20.574 0.069926 0.35905 -2.871232
2007-05-08 12:21:58 51°14.629 2°52.611 20.5704 0.069926 0.359089 -2.871232
2007-05-08 12:22:58 51°14.623 2°52.272 20.5587 0.069926 0.359128 -2.871232
2007-05-08 12:23:58 51°14.618 2°51.932 20.551 0.069926 0.359155 -2.871232
2007-05-08 12:24:58 51°14.613 2°51.592 20.5757 0.069823 0.358649 -2.871232
2007-05-08 12:25:58 51°14.594 2°51.296 20.5665 0.069823 0.358708 -2.871232
2007-05-08 12:26:58 51°14.535 2°51.201 20.5499 0.069823 0.358714 -2.871232
2007-05-08 12:27:58 51°14.497 2°51.182 20.5453 0.069823 0.35874 -2.871232
2007-05-08 12:28:58 51°14.467 2°51.179 20.5632 0.069823 0.358793 -2.871232
2007-05-08 12:29:58 51°14.413 2°51.151 20.5573 0.069823 0.358851 -2.871232
2007-05-08 12:30:58 51°14.371 2°51.093 20.5599 0.069823 0.35893 -2.871232
2007-05-08 12:31:58 51°14.351 2°51.011 20.5695 0.069823 0.359021 -2.871232
2007-05-08 12:32:58 51°14.348 2°50.912 20.5671 0.06972 0.358568 -2.871232
2007-05-08 12:33:58 51°14.343 2°50.834 20.5768 0.06972 0.358659 -2.871232
2007-05-08 12:34:58 51°14.311 2°50.744 20.5712 0.06972 0.358718 -2.871232
2007-05-08 12:35:57 51°14.274 2°50.663 20.5818 0.06972 0.358783 -2.871232
2007-05-08 12:36:58 51°14.242 2°50.6 20.5795 0.06972 0.358849 -2.871232
2007-05-08 12:37:58 51°14.22 2°50.525 20.5792 0.06972 0.358914 -2.871232
2007-05-08 12:38:58 51°14.211 2°50.444 20.5848 0.069617 0.358421 -2.871232
2007-05-08 12:39:58 51°14.199 2°50.354 20.5939 0.069617 0.35846 -2.871232
2007-05-08 12:40:58 51°14.171 2°50.278 20.5973 0.069617 0.358493 -2.871232
2007-05-08 12:41:58 51°14.144 2°50.197 20.5998 0.069617 0.358525 -2.871232
2007-05-08 12:42:58 51°14.122 2°50.111 20.6066 0.069617 0.358558 -2.871232
2007-05-08 12:43:58 51°14.086 2°50.036 20.6085 0.069617 0.358584 -2.871232
2007-05-08 12:44:58 51°14.043 2°49.969 20.6192 0.069617 0.358604 -2.871232
2007-05-08 12:45:58 51°14.011 2°49.892 20.6224 0.069617 0.35863 -2.871232
2007-05-08 12:46:58 51°13.997 2°49.801 20.6293 0.069617 0.358656 -2.871232
2007-05-08 12:47:58 51°13.993 2°49.712 20.6298 0.069617 0.358689 -2.871232
2007-05-08 12:48:58 51°13.975 2°49.628 20.6307 0.069617 0.358709 -2.871232
2007-05-08 12:49:58 51°13.952 2°49.542 20.6429 0.069617 0.358728 -2.871232
2007-05-08 12:50:58 51°13.923 2°49.461 20.6473 0.069617 0.358755 -2.871232
2007-05-08 12:51:58 51°13.889 2°49.385 20.6455 0.069617 0.358768 -2.871232
2007-05-08 12:52:58 51°13.859 2°49.308 20.6583 0.069617 0.358794 -2.871232
2007-05-08 12:53:58 51°13.839 2°49.225 20.6637 0.069617 0.358814 -2.871232
2007-05-08 12:54:58 51°13.822 2°49.144 20.6623 0.069514 0.358287 -2.871232
2007-05-08 12:55:58 51°13.794 2°49.065 20.6715 0.069514 0.358306 -2.871232
2007-05-08 12:56:58 51°13.759 2°48.991 20.6757 0.069617 0.358866 -2.871232
2007-05-08 12:57:58 51°13.721 2°48.927 20.6807 0.069514 0.358339 -2.871232
2007-05-08 12:58:58 51°13.687 2°48.868 20.6855 0.069514 0.358352 -2.871232
2007-05-08 12:59:58 51°13.666 2°48.795 20.6978 0.069514 0.358378 -2.871232
2007-05-08 13:00:58 51°13.641 2°48.711 20.7018 0.069514 0.358411 -2.871232
2007-05-08 13:01:58 51°13.611 2°48.639 20.706 0.069514 0.358431 -2.871232
2007-05-08 13:02:58 51°13.58 2°48.583 20.7142 0.069514 0.358437 -2.871232
2007-05-08 13:03:58 51°13.56 2°48.518 20.713 0.069514 0.358451 -2.871232
2007-05-08 13:04:58 51°13.559 2°48.424 20.7268 0.069514 0.358477 -2.871232
2007-05-08 13:05:58 51°13.576 2°48.339 20.7305 0.069514 0.358496 -2.871232
2007-05-08 13:06:58 51°13.605 2°48.284 20.736 0.069514 0.358529 -2.871232
2007-05-08 13:07:58 51°13.65 2°48.253 20.7295 0.069514 0.358562 -2.871232
2007-05-08 13:08:58 51°13.702 2°48.273 20.7299 0.069514 0.358641 -2.871232
2007-05-08 13:09:58 51°13.74 2°48.298 20.7315 0.069514 0.358674 -2.871232
2007-05-08 13:10:58 51°13.764 2°48.312 20.7339 0.069514 0.3587 -2.871232
2007-05-08 13:11:58 51°13.778 2°48.33 20.7234 0.069514 0.358713 -2.871232
2007-05-08 13:12:58 51°13.79 2°48.352 20.7272 0.069514 0.358719 -2.871232
2007-05-08 13:13:58 51°13.845 2°48.388 20.739 0.069514 0.358759 -2.871232
2007-05-08 13:14:58 51°13.882 2°48.528 20.7432 0.069514 0.358785 -2.871232
2007-05-08 13:15:58 51°13.924 2°48.698 20.7504 0.069514 0.358798 -2.871232
2007-05-08 13:16:58 51°13.973 2°48.875 20.7575 0.069514 0.358811 -2.871232
2007-05-08 13:17:58 51°14.021 2°49.057 20.7645 0.069514 0.358785 -2.871232
2007-05-08 13:18:58 51°14.065 2°49.244 20.7718 0.069514 0.358831 -2.871232
2007-05-08 13:19:58 51°14.104 2°49.434 20.7802 0.069514 0.358818 -2.871232
2007-05-08 13:20:59 51°14.145 2°49.635 20.7903 0.069514 0.358825 -2.871232
2007-05-08 13:21:58 51°14.207 2°49.926 20.7894 0.069514 0.358818 -2.871232
2007-05-08 13:22:58 51°14.271 2°50.256 20.7814 0.069412 0.358271 -2.871232
2007-05-08 13:23:57 51°14.333 2°50.589 20.7995 0.069412 0.358277 -2.871232
2007-05-08 13:24:58 51°14.379 2°50.938 20.81 0.069412 0.358284 -2.871232
2007-05-08 13:25:58 51°14.426 2°51.274 20.8136 0.069514 0.358838 -2.871232
2007-05-08 13:26:59 51°14.485 2°51.619 20.8218 0.069514 0.358838 -2.871232
2007-05-08 13:27:58 51°14.548 2°51.956 20.8301 0.069514 0.358838 -2.871232
2007-05-08 13:28:58 51°14.586 2°52.31 20.8366 0.069514 0.358844 -2.871232
2007-05-08 13:29:58 51°14.613 2°52.658 20.8454 0.069514 0.358838 -2.871232
2007-05-08 13:30:58 51°14.632 2°53.008 20.8585 0.069514 0.358851 -2.871232
2007-05-08 13:31:59 51°14.642 2°53.368 20.8702 0.069514 0.358838 -2.871232
2007-05-08 13:32:58 51°14.647 2°53.719 20.8749 0.069514 0.358851 -2.871232
2007-05-08 13:33:59 51°14.626 2°54.083 20.8874 0.069514 0.358844 -2.871232
2007-05-08 13:34:59 51°14.565 2°54.423 20.8984 0.069514 0.358844 -2.871232
2007-05-08 13:35:59 51°14.48 2°54.748 20.9106 0.069514 0.358864 -2.871232
2007-05-08 13:36:59 51°14.376 2°55.06 20.9228 0.069514 0.358851 -2.871232
2007-05-08 13:37:58 51°14.232 2°55.307 20.9363 0.069514 0.358864 -2.871232
2007-05-08 13:38:58 51°14.069 2°55.467 20.9534 0.069514 0.358897 -2.871232
2007-05-08 13:39:57 51°13.947 2°55.551 20.9706 0.069412 0.358362 -2.871232
2007-05-08 13:40:58 51°13.847 2°55.614 20.9883 0.069514 0.358943 -2.871232
2007-05-08 13:41:58 51°13.768 2°55.682 21.0004 0.069412 0.358448 -2.871232
2007-05-08 13:42:58 51°13.715 2°55.764 21.0169 0.069514 0.359035 -2.871232
2007-05-08 13:43:58 51°13.671 2°55.852 21.0224 0.069412 0.358527 -2.871232
2007-05-08 13:44:58 51°13.633 2°55.942 21.0558 0.069412 0.358579 -2.871232
2007-05-08 13:45:58 51°13.618 2°56.023 21.0601 0.069412 0.358605 -2.871232
2007-05-08 13:46:58 51°13.606 2°56.082 21.0757 0.069412 0.358632 -2.871232
2007-05-08 13:47:58 51°13.602 2°56.098 21.0987 0.069412 0.358658 -2.871232
2007-05-08 13:48:57 51°13.602 2°56.099 21.113 0.069412 0.358697 -2.871232
2007-05-08 13:49:58 51°13.602 2°56.099 21.141 0.069412 0.358665 -2.871232